period_start,C,m1,H,J0,J1,J2,J3,J4,J5,JA,JB,JC,JD,JJ,JK,JN,#
2016-05-09 00:02:43,0.00,1.37,0.00,19.52,24.37,28.21,14.77,50.23,1017.59,2047.00,2933.00,2800.00,3146.99,599.98,603.63,50.51,0000 0000 0000 0000 000000
2016-05-09 00:07:44,0.00,1.37,0.00,19.52,24.36,28.24,14.82,50.11,1017.59,2047.01,2932.97,2799.98,3146.90,600.00,603.76,50.56,0000 0000 0000 0000 000000
2016-05-09 00:12:45,0.05,1.38,0.00,19.55,24.35,28.26,14.83,50.13,1017.58,2047.02,2932.28,2799.51,3146.24,599.85,603.48,50.61,0000 0000 0000 0000 000000
2016-05-09 00:17:46,0.01,1.38,0.00,19.55,24.35,28.23,14.90,50.17,1017.56,2047.02,2932.01,2799.04,3146.00,599.88,603.49,50.66,0000 0000 0000 0000 000000
2016-05-09 00:22:48,0.00,1.38,0.00,19.56,24.35,28.26,14.79,50.19,1017.49,2047.01,2931.88,2798.99,3145.98,599.94,603.48,50.71,0000 0000 0000 0000 000000
2016-05-09 00:27:49,0.03,1.38,0.00,19.59,24.35,28.29,14.88,50.38,1017.44,2047.00,2931.18,2798.85,3145.49,600.40,603.87,50.76,0000 0000 0000 0000 000000
2016-05-09 00:32:50,0.03,1.38,0.00,19.60,24.35,28.28,14.69,50.13,1017.27,2047.01,2931.00,2798.14,3145.02,599.33,602.68,50.81,0000 0000 0000 0000 000000
2016-05-09 00:37:51,0.00,1.38,0.00,19.59,24.35,28.29,14.93,50.30,1017.36,2047.01,2930.95,2798.02,3145.00,600.33,603.56,50.86,0000 0000 0000 0000 000000
2016-05-09 00:42:52,0.01,1.38,0.00,19.60,24.35,28.31,14.87,50.30,1017.25,2047.01,2930.31,2798.00,3144.98,599.91,603.37,50.91,0000 0000 0000 0000 000000
2016-05-09 00:47:54,0.01,1.38,0.00,19.62,24.35,28.33,14.78,50.34,1017.17,2047.01,2930.01,2797.98,3144.56,600.24,603.47,50.97,0000 0000 0000 0000 000000
2016-05-09 00:52:55,0.01,1.38,0.00,19.63,24.35,28.32,14.81,50.32,1017.13,2047.00,2929.96,2797.81,3144.09,600.08,603.32,51.02,0000 0000 0000 0000 000000
2016-05-09 00:57:57,0.03,1.39,0.00,19.64,24.35,28.39,14.84,50.33,1017.11,2047.00,2929.23,2797.13,3144.00,600.26,603.35,51.07,0000 0000 0000 0000 000000
2016-05-09 01:02:58,0.00,1.39,0.00,19.66,24.35,28.35,14.91,50.29,1017.12,2047.01,2929.01,2797.01,3143.94,600.44,603.60,51.12,0000 0000 0000 0000 000000
2016-05-09 01:07:59,0.02,1.39,0.00,19.65,24.35,28.36,14.79,50.02,1017.11,2047.01,2928.83,2797.00,3143.36,599.59,602.65,51.17,0000 0000 0000 0000 000000
2016-05-09 01:13:01,0.03,1.39,0.00,19.68,24.37,28.39,14.81,50.13,1017.11,2047.00,2928.10,2796.65,3143.01,599.96,603.09,51.22,0000 0000 0000 0000 000000
2016-05-09 01:18:01,0.01,1.39,0.00,19.68,24.37,28.41,14.82,50.04,1017.11,2047.01,2927.99,2796.07,3142.99,599.79,602.85,51.27,0000 0000 0000 0000 000000
2016-05-09 01:23:02,0.02,1.39,0.00,19.69,24.37,28.39,14.80,50.29,1017.11,2047.00,2927.63,2796.00,3142.57,600.00,603.05,51.32,0000 0000 0000 0000 000000
2016-05-09 01:28:04,0.01,1.39,0.00,19.71,24.37,28.42,14.78,50.46,1017.11,2047.00,2927.04,2795.98,3142.03,599.85,602.87,51.37,0000 0000 0000 0000 000000
2016-05-09 01:33:05,0.01,1.39,0.00,19.72,24.38,28.44,14.81,50.29,1017.11,2047.00,2926.98,2795.70,3142.00,600.06,603.07,51.42,0000 0000 0000 0000 000000
2016-05-09 01:38:07,0.03,1.39,0.00,19.73,24.39,28.41,14.78,50.31,1017.10,2047.00,2926.32,2795.09,3141.87,599.96,602.82,51.47,0000 0000 0000 0000 000000
2016-05-09 01:43:08,0.01,1.39,0.00,19.75,24.40,28.46,14.86,50.38,1017.08,2047.00,2926.02,2795.00,3141.21,600.18,603.18,51.52,0000 0000 0000 0000 000000
2016-05-09 01:48:09,0.00,1.39,0.00,19.76,24.40,28.44,14.84,50.42,1017.06,2047.00,2925.85,2794.97,3141.00,600.09,603.01,51.57,0000 0000 0000 0000 000000
2016-05-09 01:53:10,0.04,1.40,0.00,19.79,24.41,28.45,14.78,50.48,1017.06,2047.00,2925.09,2794.26,3140.85,599.88,602.63,51.62,0000 0000 0000 0000 000000
2016-05-09 01:58:11,0.01,1.40,0.00,19.78,24.42,28.47,14.81,50.40,1017.05,2047.00,2925.00,2794.01,3140.14,600.02,602.86,51.67,0000 0000 0000 0000 000000
2016-05-09 02:03:12,0.01,1.40,0.00,19.79,24.42,28.46,14.75,50.32,1017.06,2047.00,2924.61,2794.00,3140.01,600.04,602.87,51.72,0000 0000 0000 0000 000000
2016-05-09 02:08:14,0.01,1.40,0.00,19.80,24.42,28.44,14.79,50.27,1017.03,2047.00,2924.03,2793.83,3139.96,599.79,602.63,51.77,0000 0000 0000 0000 000000
2016-05-09 02:13:15,0.04,1.40,0.00,19.83,24.44,28.51,14.73,50.24,1016.92,2047.00,2923.81,2793.20,3139.34,599.80,602.47,51.82,0000 0000 0000 0000 000000
2016-05-09 02:18:16,0.01,1.40,0.00,19.83,24.45,28.49,14.78,50.16,1016.79,2047.00,2923.07,2793.00,3139.00,599.86,602.39,51.88,0000 0000 0000 0000 000000
2016-05-09 02:23:18,0.00,1.40,0.00,19.84,24.45,28.53,14.84,50.22,1016.66,2047.00,2922.99,2792.97,3138.98,599.86,602.34,51.93,0000 0000 0000 0000 000000
2016-05-09 02:28:19,0.03,1.40,0.00,19.86,24.47,28.48,14.80,50.23,1016.63,2047.00,2922.55,2792.70,3138.63,599.96,602.33,51.98,0000 0000 0000 0000 000000
2016-05-09 02:33:20,0.03,1.41,0.00,19.88,24.47,28.54,14.80,50.38,1016.65,2047.00,2922.02,2792.04,3138.04,600.24,602.62,52.03,0000 0000 0000 0000 000000
2016-05-09 02:38:21,0.01,1.41,0.00,19.89,24.48,28.50,14.94,50.47,1016.63,2047.00,2921.71,2791.99,3137.96,600.36,602.72,52.08,0000 0000 0000 0000 000000
2016-05-09 02:43:23,0.03,1.41,0.00,19.90,24.50,28.56,14.75,50.41,1016.62,2047.00,2921.03,2791.79,3137.37,599.86,602.17,52.13,0000 0000 0000 0000 000000
2016-05-09 02:48:24,0.02,1.41,0.00,19.93,24.50,28.62,14.82,50.44,1016.62,2047.00,2920.95,2791.18,3137.02,600.15,602.29,52.18,0000 0000 0000 0000 000000
2016-05-09 02:53:26,0.01,1.41,0.00,19.94,24.52,28.59,14.88,50.42,1016.62,2047.00,2920.36,2791.00,3136.99,600.01,602.22,52.23,0000 0000 0000 0000 000000
2016-05-09 02:58:27,0.01,1.41,0.00,19.97,24.52,28.62,14.75,50.20,1016.62,2047.00,2920.02,2790.95,3136.49,599.99,602.26,52.28,0000 0000 0000 0000 000000
2016-05-09 03:03:28,0.02,1.41,0.00,19.99,24.55,28.65,14.83,50.33,1016.62,2046.99,2919.87,2790.50,3136.03,599.78,601.88,52.33,0000 0000 0000 0000 000000
2016-05-09 03:08:30,0.02,1.41,0.00,20.01,24.55,28.65,14.80,50.36,1016.62,2046.99,2919.12,2790.03,3135.99,599.97,602.13,52.38,0000 0000 0000 0000 000000
2016-05-09 03:13:31,0.01,1.41,0.00,20.03,24.57,28.66,14.79,50.39,1016.62,2046.99,2919.00,2789.99,3135.56,600.07,601.99,52.43,0000 0000 0000 0000 000000
2016-05-09 03:18:32,0.01,1.41,0.00,20.05,24.58,28.69,14.81,50.49,1016.62,2046.99,2918.57,2789.92,3135.02,600.00,602.07,52.48,0000 0000 0000 0000 000000
2016-05-09 03:23:34,0.03,1.42,0.00,20.05,24.60,28.67,14.71,50.42,1016.62,2046.98,2918.01,2789.29,3134.99,600.05,602.15,52.53,0000 0000 0000 0000 000000
2016-05-09 03:28:35,0.01,1.42,0.00,20.07,24.60,28.69,14.83,50.37,1016.62,2046.96,2917.65,2789.00,3134.83,600.04,602.10,52.58,0000 0000 0000 0000 000000
2016-05-09 03:33:36,0.02,1.42,0.00,20.09,24.62,28.71,14.78,50.32,1016.62,2046.84,2917.03,2788.74,3134.11,600.27,602.22,52.63,0000 0000 0000 0000 000000
2016-05-09 03:38:38,0.01,1.42,0.00,20.09,24.63,28.76,14.81,50.38,1016.62,2046.71,2916.78,2788.08,3133.96,600.48,602.56,52.68,0000 0000 0000 0000 000000
2016-05-09 03:43:39,-0.01,1.42,0.00,20.10,24.65,28.77,14.83,50.38,1016.62,2046.44,2916.15,2788.00,3133.37,600.22,602.14,52.74,0000 0000 0000 0000 000000
2016-05-09 03:48:40,-0.01,1.42,0.00,20.12,24.66,28.74,14.89,50.32,1016.62,2046.15,2916.00,2787.77,3133.01,600.21,602.08,52.79,0000 0000 0000 0000 000000
2016-05-09 03:53:42,0.02,1.42,0.00,20.12,24.67,28.76,14.78,50.37,1016.61,2046.08,2915.53,2787.09,3132.95,600.19,602.10,52.84,0000 0000 0000 0000 000000
2016-05-09 03:58:43,0.02,1.42,0.00,20.16,24.69,28.76,14.72,50.32,1016.57,2046.05,2915.01,2787.00,3132.24,600.08,601.88,52.89,0000 0000 0000 0000 000000
2016-05-09 04:03:45,0.01,1.42,0.00,20.17,24.70,28.82,14.70,50.26,1016.49,2046.06,2914.76,2786.92,3131.99,599.79,601.48,52.94,0000 0000 0000 0000 000000
2016-05-09 04:08:46,0.03,1.42,0.00,20.21,24.72,28.84,14.75,50.17,1016.43,2046.02,2914.06,2786.17,3131.91,599.74,601.33,52.99,0000 0000 0000 0000 000000
2016-05-09 04:13:47,0.01,1.42,0.00,20.23,24.73,28.85,14.73,50.28,1016.28,2046.00,2913.98,2786.00,3131.18,599.79,601.24,53.04,0000 0000 0000 0000 000000
2016-05-09 04:18:48,0.01,1.42,0.00,20.25,24.75,28.85,14.71,50.40,1016.16,2046.00,2913.45,2785.98,3131.01,599.92,601.27,53.09,0000 0000 0000 0000 000000
2016-05-09 04:23:49,0.03,1.42,0.00,20.29,24.76,28.89,14.68,50.38,1016.15,2046.00,2913.01,2785.54,3130.87,599.86,601.18,53.14,0000 0000 0000 0000 000000
2016-05-09 04:28:50,0.02,1.43,0.00,20.28,24.77,28.92,14.84,50.38,1016.15,2046.00,2912.81,2785.03,3130.14,600.32,601.58,53.19,0000 0000 0000 0000 000000
2016-05-09 04:33:52,0.01,1.43,0.00,20.29,24.80,28.90,14.80,50.37,1016.18,2046.00,2912.10,2785.00,3130.00,600.03,601.50,53.24,0000 0000 0000 0000 000000
2016-05-09 04:38:53,0.01,1.43,0.00,20.31,24.81,28.93,14.88,50.38,1016.21,2045.99,2911.99,2784.85,3129.90,600.48,601.58,53.29,0000 0000 0000 0000 000000
2016-05-09 04:43:55,0.04,1.43,0.00,20.31,24.82,28.98,14.76,50.31,1016.14,2045.98,2911.52,2784.10,3129.18,599.71,600.92,53.34,0000 0000 0000 0000 000000
2016-05-09 04:48:56,0.00,1.43,0.00,20.34,24.85,28.97,14.86,50.35,1016.13,2045.97,2910.99,2784.00,3129.00,600.42,601.57,53.39,0000 0000 0000 0000 000000
2016-05-09 04:53:57,0.02,1.43,0.00,20.35,24.86,28.98,14.76,50.32,1016.13,2045.98,2910.58,2783.95,3128.71,599.98,601.04,53.44,0000 0000 0000 0000 000000
2016-05-09 04:58:58,0.03,1.43,0.00,20.38,24.87,28.98,14.76,50.32,1016.13,2045.96,2910.06,2783.44,3128.07,600.02,601.04,53.49,0000 0000 0000 0000 000000
2016-05-09 05:04:00,-0.01,1.43,0.00,20.39,24.90,29.04,14.74,50.33,1016.13,2045.82,2909.95,2783.01,3127.99,600.26,601.24,53.54,0000 0000 0000 0000 000000
2016-05-09 05:09:01,-0.00,1.43,0.00,20.40,24.91,29.07,14.85,50.35,1016.12,2045.60,2909.57,2782.92,3127.75,600.29,601.25,53.59,0000 0000 0000 0000 000000
2016-05-09 05:14:02,0.02,1.43,0.00,20.41,24.92,29.07,14.77,50.44,1016.07,2045.25,2909.02,2782.22,3127.05,600.25,601.11,53.64,0000 0000 0000 0000 000000
2016-05-09 05:19:03,-0.00,1.43,0.00,20.40,24.94,29.12,14.81,50.34,1015.92,2045.21,2908.97,2782.03,3127.00,600.15,601.06,53.70,0000 0000 0000 0000 000000
2016-05-09 05:24:04,0.01,1.43,0.00,20.37,24.95,29.14,14.74,50.31,1015.77,2045.08,2908.25,2781.99,3126.90,599.92,600.80,53.75,0000 0000 0000 0000 000000
2016-05-09 05:29:06,0.01,1.44,0.00,20.39,24.96,29.12,14.67,50.41,1015.82,2045.05,2908.01,2781.88,3126.16,599.86,600.74,53.80,0000 0000 0000 0000 000000
2016-05-09 05:34:07,0.02,1.44,0.00,20.39,24.97,29.17,14.81,50.50,1015.75,2045.03,2907.92,2781.24,3126.00,600.27,601.08,53.85,0000 0000 0000 0000 000000
2016-05-09 05:39:08,0.01,1.44,0.00,20.38,24.97,29.18,14.81,50.38,1015.67,2045.01,2907.13,2781.01,3125.92,599.80,600.59,53.90,0000 0000 0000 0000 000000
2016-05-09 05:44:10,0.01,1.44,0.00,20.37,24.98,29.16,14.82,50.41,1015.66,2045.00,2907.00,2780.99,3125.19,600.25,601.05,53.95,0000 0000 0000 0000 000000
2016-05-09 05:49:11,0.02,1.44,0.00,20.37,25.00,29.20,14.82,50.38,1015.66,2045.00,2906.69,2780.75,3125.00,600.21,600.93,54.00,0000 0000 0000 0000 000000
2016-05-09 05:54:13,0.02,1.44,0.00,20.37,25.00,29.22,14.77,50.37,1015.65,2045.00,2906.05,2780.15,3124.99,600.02,600.85,54.05,0000 0000 0000 0000 000000
2016-05-09 05:59:14,0.01,1.44,0.00,20.38,25.01,29.20,14.72,50.27,1015.64,2045.00,2905.96,2780.00,3124.58,599.81,600.55,54.10,0000 0000 0000 0000 000000
2016-05-09 06:04:16,0.02,1.44,0.00,20.38,25.02,29.21,14.88,50.49,1015.64,2045.00,2905.36,2779.99,3124.05,600.29,601.14,54.15,0000 0000 0000 0000 000000
2016-05-09 06:09:17,0.01,1.44,0.00,20.37,25.02,29.21,14.73,50.44,1015.61,2045.00,2905.01,2779.76,3124.00,600.05,600.73,54.20,0000 0000 0000 0000 000000
2016-05-09 06:14:19,0.02,1.44,0.00,20.34,25.02,29.19,14.74,50.36,1015.58,2044.99,2904.81,2779.08,3123.86,599.89,600.70,54.25,0000 0000 0000 0000 000000
2016-05-09 06:19:20,0.02,1.45,0.00,20.34,25.02,29.18,14.80,50.48,1015.56,2044.99,2904.14,2779.00,3123.16,600.22,600.96,54.30,0000 0000 0000 0000 000000
2016-05-09 06:24:21,0.00,1.45,0.00,20.35,25.04,29.10,14.70,50.42,1015.60,2044.99,2903.98,2778.96,3123.00,599.77,600.71,54.35,0000 0000 0000 0000 000000
2016-05-09 06:29:23,0.03,1.45,0.00,20.37,25.05,29.15,14.75,50.31,1015.58,2044.99,2903.63,2778.42,3122.90,600.28,600.87,54.40,0000 0000 0000 0000 000000
2016-05-09 06:34:24,0.02,1.45,0.00,20.37,25.05,29.15,14.74,50.46,1015.41,2044.99,2903.05,2778.03,3122.32,599.97,600.63,54.45,0000 0000 0000 0000 000000
2016-05-09 06:39:25,0.00,1.45,0.00,20.38,25.05,29.14,14.73,50.52,1015.45,2044.99,2902.97,2778.00,3122.01,600.04,600.71,54.50,0000 0000 0000 0000 000000
2016-05-09 06:44:26,0.01,1.45,0.00,20.37,25.05,29.15,14.82,50.38,1015.52,2044.98,2902.30,2777.96,3121.99,600.32,601.03,54.56,0000 0000 0000 0000 000000
2016-05-09 06:49:28,0.03,1.45,0.00,20.38,25.06,29.10,14.75,50.43,1015.56,2044.99,2902.01,2777.47,3121.60,600.15,600.92,54.61,0000 0000 0000 0000 000000
2016-05-09 06:54:29,0.01,1.45,0.00,20.38,25.07,29.13,14.78,50.42,1015.49,2044.98,2901.91,2777.02,3121.04,600.08,600.77,54.66,0000 0000 0000 0000 000000
2016-05-09 06:59:30,0.01,1.45,0.00,20.39,25.07,29.14,14.81,50.51,1015.29,2044.96,2901.16,2776.99,3120.99,600.11,600.65,54.71,0000 0000 0000 0000 000000
2016-05-09 07:04:31,0.01,1.45,0.00,20.39,25.07,29.11,14.73,50.51,1015.19,2044.98,2901.00,2776.91,3120.72,599.91,600.49,54.76,0000 0000 0000 0000 000000
2016-05-09 07:09:32,0.03,1.46,0.00,20.41,25.07,29.15,14.72,50.38,1015.17,2044.97,2900.85,2776.25,3120.06,599.81,600.24,54.81,0000 0000 0000 0000 000000
2016-05-09 07:14:33,0.02,1.46,0.00,20.42,25.08,29.08,14.70,50.41,1015.21,2044.94,2900.08,2776.01,3119.99,599.90,600.29,54.86,0000 0000 0000 0000 000000
2016-05-09 07:19:34,0.00,1.46,0.00,20.41,25.10,29.11,14.77,50.33,1015.21,2044.94,2899.98,2775.99,3119.94,600.16,600.62,54.91,0000 0000 0000 0000 000000
2016-05-09 07:24:36,0.02,1.46,0.00,20.42,25.10,29.09,14.69,50.38,1015.27,2044.89,2899.65,2775.90,3119.29,599.84,600.30,54.96,0000 0000 0000 0000 000000
2016-05-09 07:29:37,0.02,1.46,0.00,20.44,25.10,29.07,14.76,50.35,1015.29,2044.79,2899.04,2775.26,3119.01,599.92,600.32,55.01,0000 0000 0000 0000 000000
2016-05-09 07:34:38,-0.01,1.46,0.00,20.44,25.10,29.06,14.72,50.10,1015.23,2044.66,2898.91,2775.01,3118.96,599.69,600.05,55.06,0000 0000 0000 0000 000000
2016-05-09 07:39:40,0.03,1.46,0.00,20.44,25.12,29.11,14.67,50.39,1015.20,2044.53,2898.25,2774.99,3118.37,599.77,600.19,55.11,0000 0000 0000 0000 000000
2016-05-09 07:44:41,0.01,1.46,0.00,20.44,25.12,29.08,14.68,50.40,1015.24,2044.47,2898.01,2774.66,3118.02,599.95,600.38,55.16,0000 0000 0000 0000 000000
2016-05-09 07:49:42,0.00,1.46,0.00,20.45,25.12,29.05,14.80,50.28,1015.42,2044.14,2897.63,2774.03,3117.96,599.79,600.27,55.21,0000 0000 0000 0000 000000
2016-05-09 07:54:43,0.01,1.46,0.00,20.46,25.13,29.07,14.82,50.39,1015.53,2044.08,2897.04,2774.00,3117.43,600.15,600.60,55.26,0000 0000 0000 0000 000000
2016-05-09 07:59:45,0.01,1.46,0.00,20.47,25.14,29.09,14.73,50.38,1015.47,2044.05,2896.94,2773.79,3117.02,599.83,600.20,55.31,0000 0000 0000 0000 000000
2016-05-09 08:04:46,0.03,1.46,0.00,20.48,25.15,29.09,14.73,50.33,1015.48,2044.04,2896.32,2773.17,3117.00,599.83,600.27,55.36,0000 0000 0000 0000 000000
2016-05-09 08:09:48,0.01,1.46,0.00,20.48,25.15,29.13,14.67,50.41,1015.51,2044.04,2896.01,2773.01,3116.70,599.70,600.23,55.42,0000 0000 0000 0000 000000
2016-05-09 08:14:48,0.02,1.47,0.00,20.47,25.15,29.09,14.74,50.37,1015.56,2044.05,2895.84,2772.99,3116.06,600.09,600.66,55.47,0000 0000 0000 0000 000000
2016-05-09 08:19:50,0.01,1.47,0.00,20.48,25.16,29.10,14.73,50.38,1015.45,2044.03,2895.08,2772.83,3115.99,600.14,600.49,55.52,0000 0000 0000 0000 000000
2016-05-09 08:24:51,0.02,1.47,0.00,20.48,25.17,29.15,14.78,50.51,1015.40,2044.02,2895.00,2772.17,3115.91,600.26,600.71,55.57,0000 0000 0000 0000 000000
2016-05-09 08:29:52,0.01,1.47,0.00,20.47,25.17,29.16,14.69,50.39,1015.47,2044.01,2894.88,2772.01,3115.33,599.90,600.46,55.62,0000 0000 0000 0000 000000
2016-05-09 08:34:54,0.01,1.47,0.00,20.46,25.17,29.15,14.73,50.31,1015.45,2044.01,2894.18,2771.99,3115.02,600.07,600.58,55.67,0000 0000 0000 0000 000000
2016-05-09 08:39:55,0.00,1.47,0.00,20.47,25.17,29.14,14.72,50.22,1015.31,2044.02,2893.99,2771.91,3114.99,600.01,600.36,55.72,0000 0000 0000 0000 000000
2016-05-09 08:44:56,0.04,1.47,0.00,20.46,25.19,29.15,14.78,50.36,1015.20,2044.01,2893.54,2771.18,3114.47,600.20,600.56,55.77,0000 0000 0000 0000 000000
2016-05-09 08:49:57,0.01,1.47,0.00,20.44,25.20,29.13,14.75,50.08,1015.18,2044.00,2893.02,2771.01,3114.03,599.79,600.26,55.82,0000 0000 0000 0000 000000
2016-05-09 08:54:58,0.00,1.47,0.00,20.44,25.20,29.11,14.73,50.23,1015.16,2044.00,2892.87,2770.99,3113.98,599.95,600.23,55.87,0000 0000 0000 0000 000000
2016-05-09 08:59:59,0.03,1.47,0.00,20.44,25.20,29.11,14.78,50.31,1015.17,2044.00,2892.18,2770.73,3113.76,600.14,600.43,55.92,0000 0000 0000 0000 000000
2016-05-09 09:05:00,0.03,1.48,0.00,20.44,25.20,29.10,14.77,50.30,1015.20,2044.00,2891.97,2770.12,3113.09,600.10,600.52,55.97,0000 0000 0000 0000 000000
2016-05-09 09:10:02,0.01,1.48,0.00,20.43,25.20,29.11,14.66,50.25,1015.19,2044.00,2891.54,2770.00,3113.00,599.82,600.28,56.02,0000 0000 0000 0000 000000
2016-05-09 09:15:03,0.00,1.48,0.00,20.41,25.20,29.08,14.72,50.22,1015.17,2044.00,2891.02,2769.99,3112.96,599.94,600.38,56.07,0000 0000 0000 0000 000000
2016-05-09 09:20:04,0.01,1.48,0.00,20.39,25.20,29.05,14.81,50.29,1015.18,2044.00,2891.00,2769.88,3112.52,600.18,600.66,56.12,0000 0000 0000 0000 000000
2016-05-09 09:25:06,0.03,1.48,0.00,20.38,25.20,29.05,14.77,50.24,1015.19,2044.00,2890.61,2769.27,3112.05,600.13,600.62,56.17,0000 0000 0000 0000 000000
2016-05-09 09:30:07,0.01,1.48,0.00,20.37,25.20,29.05,14.72,50.30,1015.17,2044.00,2890.01,2769.01,3112.00,599.90,600.43,56.22,0000 0000 0000 0000 000000
2016-05-09 09:35:08,0.00,1.48,0.00,20.36,25.20,29.07,14.69,50.19,1015.17,2044.00,2889.96,2768.99,3111.91,600.12,600.68,56.27,0000 0000 0000 0000 000000
2016-05-09 09:40:09,0.03,1.48,0.00,20.34,25.20,29.04,14.76,50.33,1015.16,2044.00,2889.38,2768.95,3111.28,600.06,600.68,56.32,0000 0000 0000 0000 000000
2016-05-09 09:45:11,0.03,1.48,0.00,20.35,25.20,29.03,14.73,50.34,1015.15,2044.00,2889.01,2768.39,3111.02,599.94,600.49,56.38,0000 0000 0000 0000 000000
2016-05-09 09:50:12,0.01,1.48,0.00,20.33,25.20,29.01,14.71,50.19,1015.15,2044.00,2888.91,2768.04,3111.00,600.13,600.67,56.43,0000 0000 0000 0000 000000
2016-05-09 09:55:13,0.01,1.48,0.00,20.32,25.20,29.02,14.70,50.27,1015.15,2044.00,2888.41,2768.00,3110.90,600.23,600.86,56.48,0000 0000 0000 0000 000000
2016-05-09 10:00:14,0.01,1.49,0.00,20.32,25.19,29.02,14.77,50.32,1015.15,2044.00,2888.01,2767.98,3110.14,600.28,600.85,56.53,0000 0000 0000 0000 000000
2016-05-09 10:05:16,0.02,1.49,0.00,20.31,25.18,29.01,14.74,50.30,1015.15,2044.00,2887.85,2767.64,3110.00,599.87,600.68,56.58,0000 0000 0000 0000 000000
2016-05-09 10:10:17,0.02,1.49,0.00,20.29,25.17,29.00,14.74,50.35,1015.16,2044.00,2887.43,2767.16,3109.99,600.01,600.57,56.63,0000 0000 0000 0000 000000
2016-05-09 10:15:18,0.01,1.49,0.00,20.27,25.17,28.98,14.78,50.35,1015.17,2044.00,2887.05,2767.03,3109.86,600.31,601.00,56.68,0000 0000 0000 0000 000000
2016-05-09 10:20:19,0.01,1.49,0.00,20.26,25.17,28.96,14.81,50.38,1015.16,2044.00,2886.97,2767.00,3109.27,600.16,600.89,56.73,0000 0000 0000 0000 000000
2016-05-09 10:25:20,0.01,1.49,0.00,20.25,25.16,28.97,14.82,50.40,1015.16,2044.00,2886.50,2766.98,3109.01,599.90,600.75,56.78,0000 0000 0000 0000 000000
2016-05-09 10:30:22,0.01,1.49,0.00,20.24,25.15,28.93,14.71,50.37,1015.16,2044.01,2886.02,2766.85,3109.00,599.96,600.65,56.83,0000 0000 0000 0000 000000
2016-05-09 10:35:23,0.02,1.49,0.00,20.23,25.15,28.97,14.69,50.28,1015.17,2044.01,2885.97,2766.19,3108.96,599.84,600.57,56.88,0000 0000 0000 0000 000000
2016-05-09 10:40:25,0.02,1.49,0.00,20.23,25.14,28.99,14.79,50.20,1015.15,2044.03,2885.62,2766.03,3108.60,600.13,600.94,56.93,0000 0000 0000 0000 000000
2016-05-09 10:45:26,0.01,1.49,0.00,20.21,25.12,28.95,14.72,50.18,1015.15,2044.03,2885.05,2766.00,3108.06,599.91,600.77,56.98,0000 0000 0000 0000 000000
2016-05-09 10:50:27,0.00,1.49,0.00,20.19,25.12,28.94,14.77,50.30,1015.16,2044.06,2884.99,2766.00,3108.00,600.02,600.96,57.03,0000 0000 0000 0000 000000
2016-05-09 10:55:28,0.01,1.49,0.00,20.17,25.12,28.94,14.73,50.27,1015.15,2044.08,2884.83,2765.93,3108.00,599.85,600.76,57.08,0000 0000 0000 0000 000000
2016-05-09 11:00:30,0.03,1.50,0.00,20.16,25.10,28.91,14.81,50.22,1015.15,2044.06,2884.10,2765.43,3107.90,600.18,601.20,57.13,0000 0000 0000 0000 000000
2016-05-09 11:05:31,0.02,1.50,0.00,20.15,25.10,28.96,14.70,50.23,1015.15,2044.08,2884.00,2765.07,3107.35,599.64,600.67,57.18,0000 0000 0000 0000 000000
2016-05-09 11:10:32,0.01,1.50,0.00,20.13,25.09,28.94,14.76,50.32,1015.15,2044.10,2883.98,2765.00,3107.03,600.12,601.23,57.23,0000 0000 0000 0000 000000
2016-05-09 11:15:33,0.00,1.50,0.00,20.11,25.07,28.87,14.81,50.34,1015.15,2044.09,2883.55,2765.00,3107.00,600.05,600.94,57.29,0000 0000 0000 0000 000000
2016-05-09 11:20:34,0.01,1.50,0.00,20.10,25.07,28.89,14.76,50.43,1015.15,2044.09,2883.01,2764.98,3106.99,599.97,601.00,57.34,0000 0000 0000 0000 000000
2016-05-09 11:25:36,0.01,1.50,0.00,20.09,25.06,28.87,14.81,50.37,1015.15,2044.16,2883.00,2764.90,3106.91,600.00,601.18,57.39,0000 0000 0000 0000 000000
2016-05-09 11:30:37,0.03,1.50,0.00,20.06,25.05,28.82,14.78,50.40,1015.14,2044.23,2882.93,2764.49,3106.45,599.94,601.01,57.44,0000 0000 0000 0000 000000
2016-05-09 11:35:39,0.04,1.50,0.00,20.05,25.04,28.87,14.78,50.41,1015.14,2044.44,2882.25,2764.09,3106.08,599.96,601.13,57.49,0000 0000 0000 0000 000000
2016-05-09 11:40:40,0.04,1.51,0.00,20.03,25.02,28.80,14.74,50.29,1015.13,2044.78,2882.01,2764.01,3106.01,599.82,600.94,57.54,0000 0000 0000 0000 000000
2016-05-09 11:45:42,0.01,1.51,0.00,20.01,25.02,28.79,14.72,50.15,1015.12,2044.88,2881.98,2764.00,3106.00,600.08,601.21,57.59,0000 0000 0000 0000 000000
2016-05-09 11:50:43,0.02,1.51,0.00,20.00,25.00,28.80,14.79,50.39,1015.04,2044.96,2881.63,2764.00,3105.99,600.12,601.19,57.64,0000 0000 0000 0000 000000
2016-05-09 11:55:44,0.01,1.51,0.00,19.97,24.99,28.81,14.74,50.21,1014.96,2044.98,2881.04,2763.96,3105.82,599.77,600.98,57.69,0000 0000 0000 0000 000000
2016-05-09 12:00:45,0.02,1.51,0.00,19.96,24.97,28.78,14.91,50.39,1014.76,2044.98,2880.99,2763.62,3105.18,600.43,601.58,57.74,0000 0000 0000 0000 000000
2016-05-09 12:05:47,0.02,1.51,0.00,19.95,24.97,28.81,14.80,50.27,1014.69,2044.98,2880.83,2763.19,3105.01,599.97,601.07,57.79,0000 0000 0000 0000 000000
2016-05-09 12:10:48,0.01,1.51,0.00,19.92,24.96,28.78,14.70,50.33,1014.68,2044.98,2880.11,2763.01,3104.99,599.68,600.76,57.84,0000 0000 0000 0000 000000
2016-05-09 12:15:49,0.00,1.51,0.00,19.92,24.95,28.75,14.78,50.34,1014.67,2044.99,2880.00,2763.00,3104.98,600.19,601.28,57.89,0000 0000 0000 0000 000000
2016-05-09 12:20:50,0.00,1.51,0.00,19.91,24.93,28.78,14.81,50.39,1014.68,2044.99,2879.86,2762.99,3104.74,600.00,601.22,57.94,0000 0000 0000 0000 000000
2016-05-09 12:25:51,0.02,1.51,0.00,19.87,24.92,28.75,14.81,50.33,1014.66,2044.99,2879.59,2762.96,3104.17,599.96,601.20,57.99,0000 0000 0000 0000 000000
2016-05-09 12:30:53,0.02,1.51,0.00,19.85,24.91,28.77,14.69,50.23,1014.66,2044.99,2879.08,2762.63,3104.04,599.77,601.04,58.04,0000 0000 0000 0000 000000
2016-05-09 12:35:54,0.01,1.51,0.00,19.84,24.90,28.76,14.71,50.27,1014.66,2045.00,2879.00,2762.10,3104.00,599.69,601.00,58.09,0000 0000 0000 0000 000000
2016-05-09 12:40:55,0.00,1.51,0.00,19.80,24.88,28.77,14.77,50.26,1014.67,2045.01,2878.88,2762.01,3103.98,599.95,601.34,58.15,0000 0000 0000 0000 000000
2016-05-09 12:45:57,0.02,1.52,0.00,19.80,24.87,28.66,14.71,50.21,1014.67,2045.02,2878.13,2762.00,3103.72,599.86,601.25,58.20,0000 0000 0000 0000 000000
2016-05-09 12:50:58,0.01,1.52,0.00,19.80,24.85,28.69,14.76,50.36,1014.66,2045.06,2878.00,2761.98,3103.15,599.77,601.12,58.25,0000 0000 0000 0000 000000
2016-05-09 12:55:59,0.02,1.52,0.00,19.76,24.84,28.66,14.70,50.28,1014.66,2045.12,2877.75,2761.76,3103.02,599.85,601.36,58.30,0000 0000 0000 0000 000000